[[{"header":{"parameterUnit":"m.s-1","parameterCategory":1,"la1":30.2991,"la2":30.254,"lo1":-89.0895,"lo2":-89.0444,"dy":0.0017,"dx":0.0017,"nx":28,"ny":28,"refTime":"2025-08-20T09:00:00:Z","depth":0,"parameterNumber":2,"parameterNumberName":"U-component_of_WINDS"},"data":[0,0,0,0,0,0,0,0,0,0,0,0,0,0,0,0,0,0,0,0,0,0,0,0,0,0,0,0,0,0,0,0,0,0,0,0,0,0,0,0,0,0,0,0,0,0,0,0,0,0,0,0,0,0,0,0,0,0,0.6322,0.6323,0,0.6459,0.6461,0.6462,0.6447,0.6445,0.6443,0.6441,0.6587,0.6593,0.6598,0,0,0,0,0,0,0,0,0,0,0,0,0,0.6055,0.606,0.6322,0.6324,0.6325,0.6459,0.6461,0.6463,0.6448,0.6445,0.6442,0.644,0.6585,0.6592,0.6599,0,0,0,0,0,0,0,0,0,0,0,0,0,0.618,0.6062,0.6322,0.6334,0.6336,0.6459,0.6461,0.6463,0.6448,0.6445,0.6442,0.6438,0.6583,0.6591,0.66,0.6721,0,0,0.6627,0.6631,0,0,0,0,0,0,0,0,0.6173,0.619,0.633,0.6333,0.6336,0.6433,0.642,0.655,0.6449,0.6406,0.6441,0.6437,0.6539,0.6551,0.6584,0.6728,0.6734,0.6628,0.6633,0.6637,0.664,0,0,0,0,0,0,0,0.6164,0.6184,0.6376,0.6332,0.6336,0.6335,0.6349,0.6445,0.6489,0.6409,0.6409,0.6425,0.654,0.6575,0.6587,0.6736,0.6628,0.6636,0.6641,0.6645,0.6993,0.6997,0,0,0,0,0,0,0.6152,0.6177,0.6372,0.638,0.6244,0.6343,0.6358,0.6405,0.6488,0.6497,0.6427,0.6423,0.6562,0.6577,0.6592,0.6744,0.6637,0.6645,0.6651,0.6989,0.6994,0.6998,0,0,0,0,0,0,0.6146,0.6169,0.6366,0.6278,0.6303,0.6351,0.6403,0.6409,0.6445,0.6502,0.651,0.6455,0.656,0.658,0.669,0.6749,0.6649,0.6658,0.6985,0.6991,0.6996,0.7045,0,0,0,0,0,0,0.6138,0.6167,0.6211,0.6279,0.6308,0.6459,0.6407,0.6415,0.646,0.6456,0.653,0.6539,0.6559,0.6677,0.6699,0.6759,0.6664,0.698,0.6987,0.6994,0.7039,0.7052,0.7064,0,0,0,0,0,0.6129,0.6219,0.6213,0.6237,0.6364,0.6462,0.6479,0.6498,0.6464,0.6511,0.6549,0.6537,0.6738,0.6688,0.6713,0.6777,0.6976,0.6985,0.6994,0.7033,0.705,0.7063,0,0,0,0,0,0,0.6157,0.6228,0.6222,0.6337,0.6394,0.646,0.6518,0.6514,0.6583,0.6576,0.6599,0.6616,0.6729,0.6763,0.6706,0.6902,0.6853,0.6867,0.6875,0.6891,0.6903,0.6894,0.6672,0,0,0,0,0,0.6176,0.6248,0.6307,0.6403,0.6432,0.647,0.6514,0.6524,0.6585,0.6609,0.6654,0.6715,0.6793,0.6843,0.6917,0.7043,0.7063,0.71,0.7112,0.7122,0.7135,0.7211,0.723,0.7027,0.7027,0.7027,0,0,0.6217,0.6265,0.6309,0.641,0.6455,0.6533,0.6491,0.6573,0.6632,0.6622,0.673,0.6765,0.6835,0.6956,0.7011,0.6988,0.7196,0.7134,0.7141,0.7149,0.7222,0.7241,0.7259,0.7033,0.7032,0.7031,0,0,0.6332,0.6373,0.646,0.6507,0.6576,0.6602,0.6623,0.6691,0.6715,0.6823,0.6819,0.6891,0.7022,0.7074,0.7118,0.7258,0.7253,0.7282,0.7348,0.7422,0.7438,0.7452,0.7507,0.7526,0.7294,0.7294,0.7294,0,0.6375,0.6489,0.6506,0.6591,0.6638,0.6632,0.6723,0.6768,0.6859,0.6893,0.6866,0.7035,0.7081,0.7217,0.7251,0.7285,0.7314,0.7274,0.7433,0.7448,0.7462,0.7515,0.7535,0.7298,0.7297,0.7297,0.7297,0,0.6541,0.6621,0.6683,0.6771,0.6825,0.6912,0.6946,0.6999,0.7006,0.7036,0.715,0.7206,0.7294,0.7326,0.7333,0.7465,0.745,0.7428,0.738,0.7484,0.7535,0.7555,0.7303,0.7301,0.73,0.7299,0,0,0.6676,0.6775,0.6798,0.684,0.6918,0.6982,0.7072,0.7157,0.7205,0.7268,0.7348,0.7462,0.7444,0.7493,0.7506,0.7571,0.7686,0.7542,0.7544,0.7571,0.7841,0.786,0.7883,0.7682,0.7685,0.7688,0.7837,0,0.6802,0.6958,0.6979,0.7119,0.7196,0.7194,0.7274,0.7332,0.7364,0.7437,0.7473,0.7555,0.7522,0.7553,0.7616,0.7658,0.7741,0.7647,0.776,0.7764,0.7746,0.7908,0.7927,0.8064,0.7857,0.786,0.7862,0,0.6969,0.7038,0.7186,0.7259,0.7293,0.7363,0.7446,0.7514,0.7583,0.7602,0.766,0.7667,0.7765,0.7712,0.785,0.7786,0.7834,0.7862,0.7868,0.7882,0.7821,0.7931,0.8108,0.813,0.7893,0.789,0.7888,0,0.7058,0.7189,0.7296,0.7331,0.7418,0.7468,0.7507,0.7572,0.7625,0.7698,0.7733,0.7817,0.7865,0.7932,0.7963,0.7921,0.8102,0.805,0.8125,0.8125,0.8165,0.8162,0.8356,0.8189,0.8189,0.8189,0.8188,0,0.7199,0.7291,0.7338,0.7404,0.7509,0.7533,0.7638,0.7675,0.7735,0.7811,0.7814,0.7887,0.7922,0.8002,0.8027,0.8141,0.8161,0.8183,0.8189,0.8185,0.8183,0.8218,0.8211,0.8194,0.8193,0.8192,0.8191,0,0.7316,0.7351,0.7469,0.7542,0.7563,0.7637,0.7702,0.7769,0.7801,0.7899,0.7923,0.7975,0.8069,0.8107,0.8221,0.8239,0.8372,0.8369,0.8349,0.8351,0.8426,0.842,0.8653,0.8687,0.8494,0.8495,0.8497,0,0.7405,0.7476,0.7558,0.7609,0.765,0.7732,0.7786,0.7814,0.7871,0.7958,0.8016,0.8109,0.8186,0.8338,0.8388,0.8478,0.848,0.8555,0.8493,0.8489,0.8487,0.8484,0.8494,0.8567,0.8569,0.8571,0.8572,0,0.7561,0.7576,0.7652,0.7737,0.7801,0.7869,0.7935,0.7978,0.8017,0.8082,0.8178,0.8238,0.8357,0.8452,0.8546,0.8589,0.8591,0.8591,0.8614,0.8612,0.8599,0.8613,0.8384,0.8586,0.8585,0.8584,0.8583,0.8582,0.767,0.7735,0.7804,0.7891,0.7945,0.8008,0.8076,0.8118,0.8198,0.8297,0.8309,0.8414,0.8488,0.8613,0.8661,0.8747,0.8728,0.8759,0.8768,0.8777,0.8785,0.8583,0.8763,0.8763,0.8763,0.8762,0.8762,0,0.7829,0.7875,0.7954,0.8048,0.8119,0.8111,0.8185,0.8246,0.8337,0.8405,0.8481,0.8595,0.8689,0.8748,0.8844,0.8901,0.8905,0.8926,0.8924,0.8936,0.8794,0.8766,0.8922,0.8922,0.8922,0.8922,0.8922,0.8922,0.7921,0.8033,0.8057,0.8198,0.8244,0.8345,0.839,0.845,0.8505,0.8632,0.871,0.8747,0.8813,0.8915,0.9003,0.9018,0.9055,0.9079,0.9094,0.8961,0.8945,0.8929,0.8904,0.9086,0.9086,0.9229,0.9231,0.9232]},{"header":{"parameterUnit":"m.s-1","parameterCategory":1,"la1":30.2991,"la2":30.254,"lo1":-89.0895,"lo2":-89.0444,"dy":0.0017,"dx":0.0017,"nx":28,"ny":28,"refTime":"2025-08-20T09:00:00:Z","depth":0,"parameterNumber":3,"parameterNumberName":"V-component_of_WINDS"},"data":[0,0,0,0,0,0,0,0,0,0,0,0,0,0,0,0,0,0,0,0,0,0,0,0,0,0,0,0,0,0,0,0,0,0,0,0,0,0,0,0,0,0,0,0,0,0,0,0,0,0,0,0,0,0,0,0,0,0,-2.3045,-2.3046,0,-2.3107,-2.3108,-2.3108,-2.315,-2.315,-2.315,-2.315,-2.3211,-2.3212,-2.3213,0,0,0,0,0,0,0,0,0,0,0,0,0,-2.2958,-2.2959,-2.3045,-2.3046,-2.3047,-2.3107,-2.3108,-2.3108,-2.315,-2.315,-2.315,-2.3151,-2.321,-2.3212,-2.3213,0,0,0,0,0,0,0,0,0,0,0,0,0,-2.3005,-2.2959,-2.3045,-2.3074,-2.3078,-2.3107,-2.3108,-2.3109,-2.3149,-2.315,-2.315,-2.3151,-2.321,-2.3211,-2.3213,-2.3217,0,0,-2.322,-2.322,0,0,0,0,0,0,0,0,-2.3002,-2.3008,-2.3069,-2.3072,-2.3076,-2.3121,-2.3099,-2.3145,-2.3149,-2.3122,-2.315,-2.3151,-2.318,-2.3185,-2.3195,-2.322,-2.3222,-2.322,-2.3221,-2.3222,-2.3222,0,0,0,0,0,0,0,-2.2999,-2.3006,-2.307,-2.307,-2.3074,-2.3083,-2.309,-2.3108,-2.3148,-2.3125,-2.3128,-2.3135,-2.3182,-2.3193,-2.3197,-2.3223,-2.322,-2.3221,-2.3223,-2.3223,-2.325,-2.325,0,0,0,0,0,0,-2.2992,-2.3003,-2.3068,-2.3071,-2.304,-2.3084,-2.3092,-2.3106,-2.3148,-2.3155,-2.3134,-2.3136,-2.319,-2.3194,-2.3199,-2.3204,-2.3222,-2.3224,-2.3225,-2.3251,-2.325,-2.325,0,0,0,0,0,0,-2.299,-2.2997,-2.3065,-2.3038,-2.3047,-2.3085,-2.31,-2.3107,-2.3118,-2.3155,-2.3162,-2.3138,-2.319,-2.3196,-2.3212,-2.3207,-2.3225,-2.3226,-2.3251,-2.3251,-2.325,-2.3215,0,0,0,0,0,0,-2.2987,-2.2996,-2.2999,-2.3038,-2.3049,-2.3078,-2.31,-2.3108,-2.3122,-2.3125,-2.3161,-2.3167,-2.3191,-2.3208,-2.3214,-2.321,-2.3228,-2.3252,-2.3251,-2.325,-2.3216,-2.3213,-2.321,0,0,0,0,0,-2.2984,-2.2987,-2.2999,-2.3007,-2.3054,-2.3078,-2.3084,-2.3112,-2.3122,-2.3124,-2.3147,-2.3166,-2.3206,-2.321,-2.3216,-2.3212,-2.3252,-2.3251,-2.325,-2.3218,-2.3214,-2.321,0,0,0,0,0,0,-2.2947,-2.2993,-2.3007,-2.3023,-2.3046,-2.3085,-2.3089,-2.3107,-2.3127,-2.3129,-2.3162,-2.317,-2.3181,-2.3199,-2.3201,-2.3216,-2.3231,-2.3231,-2.3205,-2.3201,-2.3198,-2.3193,-2.323,0,0,0,0,0,-2.2941,-2.2958,-2.2997,-2.3007,-2.3018,-2.3051,-2.3063,-2.3082,-2.3107,-2.3117,-2.3141,-2.3164,-2.3181,-2.3192,-2.3211,-2.3219,-2.3226,-2.3219,-2.3216,-2.3213,-2.3212,-2.3215,-2.3212,-2.3246,-2.3246,-2.3246,0,0,-2.2928,-2.2955,-2.2964,-2.3,-2.3021,-2.3035,-2.3059,-2.3075,-2.3086,-2.3119,-2.3135,-2.3153,-2.318,-2.3191,-2.3197,-2.3206,-2.3204,-2.3212,-2.3209,-2.321,-2.3214,-2.321,-2.3207,-2.3245,-2.3245,-2.3246,0,0,-2.2913,-2.2936,-2.2946,-2.2965,-2.2995,-2.3017,-2.3019,-2.3054,-2.3068,-2.3084,-2.3108,-2.3121,-2.3151,-2.3169,-2.3181,-2.3168,-2.3186,-2.3173,-2.3156,-2.3158,-2.3155,-2.3153,-2.3146,-2.3143,-2.3173,-2.3173,-2.3173,0,-2.2894,-2.2919,-2.2949,-2.2962,-2.2976,-2.3007,-2.3015,-2.3032,-2.3066,-2.3074,-2.3084,-2.312,-2.314,-2.3155,-2.3151,-2.3161,-2.3163,-2.3169,-2.3153,-2.3151,-2.315,-2.3143,-2.3141,-2.3171,-2.3171,-2.3171,-2.3171,0,-2.2892,-2.2909,-2.2913,-2.2945,-2.2959,-2.297,-2.3,-2.301,-2.3027,-2.3047,-2.3061,-2.3086,-2.3109,-2.3114,-2.3131,-2.3129,-2.3133,-2.3147,-2.3163,-2.3144,-2.3139,-2.3137,-2.3168,-2.3169,-2.3169,-2.317,0,0,-2.2858,-2.2904,-2.2905,-2.2918,-2.2952,-2.2964,-2.2975,-2.2997,-2.3004,-2.3026,-2.3034,-2.3058,-2.307,-2.3084,-2.3103,-2.3105,-2.309,-2.3119,-2.312,-2.3111,-2.3087,-2.3075,-2.3072,-2.3102,-2.3102,-2.3101,-2.3084,0,-2.2847,-2.2869,-2.2895,-2.2907,-2.2921,-2.2948,-2.2957,-2.2978,-2.2996,-2.3009,-2.3028,-2.3043,-2.306,-2.3068,-2.3071,-2.3091,-2.3086,-2.3093,-2.3108,-2.3108,-2.3099,-2.307,-2.3058,-2.304,-2.3082,-2.3082,-2.3082,0,-2.2838,-2.2857,-2.2871,-2.29,-2.2907,-2.2915,-2.2935,-2.2948,-2.297,-2.2983,-2.2997,-2.3017,-2.3027,-2.3041,-2.3054,-2.3059,-2.3066,-2.3076,-2.3076,-2.3078,-2.3093,-2.3069,-2.3035,-2.3032,-2.3079,-2.3079,-2.3079,0,-2.2809,-2.2839,-2.285,-2.2861,-2.2895,-2.29,-2.2914,-2.2937,-2.2947,-2.2965,-2.2971,-2.299,-2.2999,-2.3012,-2.3035,-2.3043,-2.3044,-2.3061,-2.3053,-2.3052,-2.3052,-2.3051,-2.3017,-2.3059,-2.3059,-2.3059,-2.3059,0,-2.2794,-2.2801,-2.2837,-2.2844,-2.2851,-2.2879,-2.2885,-2.2902,-2.2921,-2.293,-2.2954,-2.2962,-2.2992,-2.3003,-2.3021,-2.3027,-2.3032,-2.304,-2.3045,-2.3038,-2.3036,-2.3042,-2.3043,-2.3058,-2.3058,-2.3058,-2.3058,0,-2.2764,-2.2789,-2.2802,-2.2833,-2.284,-2.2844,-2.287,-2.2876,-2.2894,-2.2905,-2.2909,-2.2937,-2.295,-2.2974,-2.2994,-2.3006,-2.3008,-2.3017,-2.3,-2.3003,-2.2992,-2.2992,-2.296,-2.2956,-2.3001,-2.3001,-2.3,0,-2.2752,-2.2758,-2.2788,-2.2796,-2.2809,-2.2821,-2.2832,-2.2858,-2.2867,-2.2891,-2.2893,-2.2908,-2.2921,-2.294,-2.2962,-2.2976,-2.2985,-2.2972,-2.2987,-2.2978,-2.2982,-2.2981,-2.298,-2.2969,-2.2968,-2.2968,-2.2967,0,-2.2728,-2.2739,-2.2753,-2.277,-2.2781,-2.2796,-2.2813,-2.2817,-2.2846,-2.2855,-2.2868,-2.2878,-2.2898,-2.2911,-2.2928,-2.2941,-2.2958,-2.2962,-2.2961,-2.2953,-2.2942,-2.2945,-2.2989,-2.2963,-2.2963,-2.2964,-2.2964,-2.2964,-2.2706,-2.2711,-2.2732,-2.2746,-2.276,-2.2773,-2.278,-2.2797,-2.2809,-2.2827,-2.2841,-2.2852,-2.2871,-2.2895,-2.2907,-2.2915,-2.2923,-2.2922,-2.2921,-2.292,-2.2915,-2.2941,-2.2918,-2.2918,-2.2918,-2.2919,-2.2919,0,-2.2682,-2.2696,-2.2708,-2.2728,-2.2738,-2.2753,-2.277,-2.2777,-2.2787,-2.2803,-2.2814,-2.2827,-2.284,-2.2861,-2.2874,-2.2876,-2.2883,-2.2878,-2.2878,-2.288,-2.2909,-2.2907,-2.2871,-2.2871,-2.2871,-2.2871,-2.2871,-2.2871,-2.267,-2.2678,-2.2691,-2.2704,-2.2718,-2.2729,-2.2737,-2.2749,-2.2761,-2.2774,-2.2784,-2.2798,-2.2815,-2.2829,-2.2839,-2.2845,-2.2848,-2.284,-2.2847,-2.2874,-2.2878,-2.2882,-2.2881,-2.2841,-2.2841,-2.2818,-2.2818,-2.2817]}]]